{"data":{"norad_id":46563,"intl_designator":"2020-070AH","name":"STARLINK-1730","alt_names":[],"object_type":"PAYLOAD","status":"ACTIVE","operator":null,"country":"US","launch_date":"2020-10-06","launch_site_code":"AFETR","launch_vehicle":null,"mission":null,"orbit_class":"UNKNOWN","rcs_meters":null,"size_class":null,"mass_kg":null,"dimensions":null,"purposes":["comms"],"wikipedia_slug":null,"has_3d_model":false,"image_url":null,"decayed_at":null,"tle_current":{"epoch":"2026-09-20T00:00:02.998944Z","epoch_age_seconds":65204,"freshness":"FRESH","line1":"1 46563U 20070AH  26263.00003471  .00086996  00000+0  43153-3 0  9993","line2":"2 46563  53.0148 252.5092 0004092  39.6163 100.4513 15.81276696  6017","mean_motion":15.81276696,"eccentricity":0.0004092,"inclination_deg":53.0148,"raan_deg":252.5092,"arg_perigee_deg":39.6163,"mean_anomaly_deg":100.4513,"bstar":0.00043153,"rev_number":601,"period_min":91.065656228453,"perigee_km":324.085548957,"apogee_km":329.57289331237,"semimajor_km":6704.9662211347,"source":"CELESTRAK","updated_at":"2026-09-20T09:00:38.585640Z"}}}